Regional Weather Roundup
Issued by NWS Midland/Odessa, TX

Skip options and go directly to product.
Home | Oldest Version | Previous Version | Current Version | All | Graphics & Text | Save Text | Print | Product List | Glossary On

Skip product version selection by date and time.   
220
ASUS44 KMAF 212202
RWRMAF
MIDLAND AREA WEATHER ROUNDUP
NATIONAL WEATHER SERVICE MIDLAND TX
500 PM CDT TUE OCT 21 2014

...IN SOUTHWEST TEXAS AND SOUTHEAST NEW MEXICO...

CITY           SKY/WX    TMP DP  RH WIND       PRES   REMARKS
ALPINE         CLOUDY    64  56  75 SE7       30.13S
ANDREWS        CLOUDY    70  55  60 S10       30.05F
ARTESIA        NOT AVBL
BIG SPRING     CLOUDY    79  53  41 SE7       30.06S
CARLSBAD       CLOUDY    70  60  70 SE12      30.03S
DRYDEN           N/A     70  64  81 SE12      30.01S
FORT STOCKTON  PTSUNNY   68  60  75 SE14      30.04F
GUAD PASS      NOT AVBL
HOBBS          PTSUNNY   66  57  72 SE14      30.08S
MARFA          CLOUDY    59  57  94 NE3       30.11S
MIDLAND AIRPK  CLOUDY    72  56  56 SE9       30.05S
MIDLAND INTL   CLOUDY    74  54  49 SE9       30.04F
ODESSA         CLOUDY    72  55  55 S10       30.05F
PECOS          CLOUDY    70  61  73 E10       30.02S
PRESIDIO       MOCLDY    71  62  73 NE8       29.99F
SEMINOLE       CLOUDY    69  55  59 SE10      30.07F
SNYDER         MOSUNNY   76  51  41 SE8       30.04F
WINK           CLOUDY    70  61  73 SE12      30.02F
$$
...OTHER STATIONS IN TEXAS...

CITY           SKY/WX    TMP DP  RH WIND       PRES   REMARKS
ABILENE        MOSUNNY   80  50  34 SE13      30.03S
AMARILLO       MOSUNNY   74  47  38 S18       30.06S
AUSTIN         MOSUNNY   81  48  31 NE9       29.99S
BROWNSVILLE    CLOUDY    83  71  67 NE12G20   29.88F
CORPUS CHRISTI PTSUNNY   79  68  69 E15       29.94S
DALLAS FTW     MOSUNNY   80  57  45 SE12      30.02F
DEL RIO        CLOUDY    80  59  48 E7        29.96S
EL PASO        PTSUNNY   73  53  49 NE5       29.99F
HOUSTON INT    MOSUNNY   81  58  45 E10G16    29.98F
LUBBOCK        MOSUNNY   75  49  39 SE12      30.04F
SAN ANGELO     CLOUDY    79  52  38 E6        30.01S
SAN ANTONIO    MOSUNNY   83  54  36 E12       29.98S
WACO           MOSUNNY   81  47  30 E7        30.01S
WICHITA FALLS  NOT AVBL
$$
...OTHER LOCATIONS IN NEW MEXICO...

CITY           SKY/WX    TMP DP  RH WIND       PRES   REMARKS
ALAMAGORDO     NOT AVBL
ALBUQUERQUE    MOSUNNY   68  43  40 SW10      30.07F
CANNON AFB     MOSUNNY   70  50  48 S12       30.07S
CLOVIS         CLOUDY    72  46  40 S13       30.09
HOLLOMAN AFB   MOSUNNY   71  53  54 SE5       30.02F
ROSWELL        PTSUNNY   68  57  68 SE8       30.05S
RUIDOSO        RAIN      54  50  87 NW7       30.18S
SANTA FE       MOSUNNY   61  42  49 SW5       30.11F
TRUTH OR CONSE MOSUNNY   67  50  54 SE5       30.05F
TUCUMCARI      PTSUNNY   66  54  65 W10       30.04F
$$

USA.gov is the U.S. government's official web portal to all federal, state and local government web resources and services.